DELTA 1 DEB

Satellite information

Favourite Embed

Satellite Type and Status

DEBRISIN ORBIT

Key statistics

Satellite DELTA 1 DEB at a glance.

Uptime

17451

Days in orbit

Revolutions

≈ 14.1

Per day

Orbit

SSO

Sun Synchronous Orbit

Inclination

99.2

Latest

Satellite identification and parameters

Extended collection of information and parameters for DELTA 1 DEB.

Object identification

Identified? True

Debris? True

Object name: DELTA 1 DEB

International designator: 1978-026U

Object number (NORAD): 12179

Object ID (CCSDS): 12179

Country: UNITED STATES OF AMERICA (US)

Current information (Y/N): Y

RCS size: SMALL

Orbital parameters

Period: 102.27 minutes

Inclination: 99.1574 deg

SMA: 7244.245 km

Apoapsis: 984.341 km

Periapsis: 747.879 km

RAAN: 282.9594 deg

Eccentricy: 0.01632068

Argument of periapsis: 295.1928 deg

Mean anomaly: 182.1942 deg

Mean motion: 14.08033862 rev/day

Mean motion (dot): 0.00001772 rev/day2

B* drag term: 0.00094642344 1/REarth

Two-line elements (TLE)

Creation date: Dec. 14, 2025, 3:07 a.m.

Reference frame: TEME

Reference center: EARTH

Epoch: Dec. 13, 2025, 9:19 a.m. UTC

TLE line 0: 0 DELTA 1 DEB

TLE line 1: 1 12179U 78026U 25347.38822331 .00001772 00000-0 94642-3 0 9999

TLE line 2: 2 12179 99.1574 282.9594 0163207 295.1928 182.1942 14.08033862287774

Live tracking on map

Real-time ground track for satellite DELTA 1 DEB.

In-orbit conjunctions

A list of the most updated potential collisions computed for object DELTA 1 DEB.

Target Orbit TCA Probability of collision Miss distance Type
DMSP 5D-2 F13 DEB SSO 2025-08-06 06:45:59 0.0001023752 62.0 (m) DEBRIS
EXPLORER 25 (INJUN-4) HEO 2024-09-09 14:02:34 0.0001042778 681.0 (m) PAYLOAD

Associated space launch

Earth observation satellite

DELTA 1 DEB was lifted into orbit during the mission ‘Delta 2910 | Landsat 3’, on board a Delta 2910 space rocket.

The launch took place on March 5, 1978, 5:54 p.m. from Space Launch Complex 2W.

For more information about the launch, click the button.

Launch to space Delta 2910 | Landsat 3
Delta 2910 | Landsat 3

Agency: N/A

Status: Launch Successful

Launch date: March 5, 1978, 5:54 p.m. UTC

Rocket: Delta 2910

Launch pad: Space Launch Complex 2W

Location: Vandenberg SFB, CA, USA

...

Latest news about this satellite

There are no fresh news available about this satellite. Check back as we update our databases every day.


Newsletter sign-up

Weekly statistics, charts and insights to help you stay on top of the space industry.